Location: Viterbo
(42.4170°N, 12.1000°E)
Time: 13:00:47
(UTC+01:00)

ISS - Visible Passes

Search period start: 20 November 2019 00:00
Search period end: 30 November 2019 00:00
Orbit: 412 x 421 km, 51.6° (Epoch: 20 November)

Date Brightness Start Highest point End Pass type
(mag) Time Alt. Az. Time Alt. Az. Time Alt. Az.
20 Nov -1.8 18:27:39 10° S 18:29:12 18° SSE 18:29:12 18° SSE visible
21 Nov -1.5 17:40:35 10° SSE 17:42:04 12° SE 17:43:09 11° ESE visible
21 Nov -1.1 19:15:01 10° WSW 19:16:05 19° WSW 19:16:05 19° WSW visible
22 Nov -3.6 18:26:42 10° SW 18:29:56 58° SSE 18:29:56 58° SSE visible
23 Nov -2.8 17:38:37 10° SSW 17:41:40 33° SE 17:43:42 17° E visible
23 Nov -1.1 19:15:14 10° W 19:16:37 21° W 19:16:37 21° W visible
24 Nov -3.4 18:26:35 10° WSW 18:29:53 54° NNW 18:30:18 50° N visible
25 Nov -3.8 17:38:04 10° SW 17:41:25 88° NNW 17:43:54 17° NE visible
25 Nov -0.9 19:15:48 10° WNW 19:16:49 16° WNW 19:16:49 16° WNW visible
26 Nov -2.3 18:26:58 10° W 18:29:55 28° NNW 18:30:21 27° N visible
27 Nov -2.7 17:38:10 10° W 17:41:20 38° NNW 17:43:51 15° NE visible
27 Nov -0.6 19:16:24 10° NW 19:16:45 12° NW 19:16:45 12° NW visible
28 Nov -1.8 18:27:33 10° WNW 18:30:04 19° N 18:30:13 19° N visible
29 Nov -2.0 17:38:38 10° WNW 17:41:23 23° NNW 17:43:39 13° NNE visible
